Renton, WA

7:05 AM PST on January 20, 2018 (GMT -0800)
Renton Municipal

Weather History for KRNT - March, 2011

Change the Weather History Date:

Sunday, March 13, 2011

  Actual Average Record
Temperature  
Mean Temperature 48 °F -  
Max Temperature 53 °F 51 °F 64 °F (1998)
Min Temperature 43 °F 39 °F 30 °F (2009)
Degree Days  
Heating Degree Days 17    
Moisture  
Dew Point 42 °F    
Average Humidity 79    
Maximum Humidity 93    
Minimum Humidity 66    
Precipitation  
Precipitation 0.50 in - - ()
Sea Level Pressure  
Sea Level Pressure 29.75 in    
Wind  
Wind Speed 7 mph (SE)    
Max Wind Speed 15 mph    
Max Gust Speed 25 mph    
Visibility 8 miles    
Events Rain    
Averages and records for this station are not official NWS values.
T = Trace of Precipitation, MM = Missing Value Source: NWS Daily Summary

Daily Weather History Graph

Daily Weather History Graph

Search for Another Location

Airport or City:

Trip Planner

Search our weather history database for the weather conditions in past years. The results will help you decide how hot, cold, wet, or windy it might be!

Date:

Astronomy

Mar. 13, 2011 Rise Set
Actual Time 7:26 AM PDT 7:11 PM PDT
Civil Twilight 6:55 AM PDT 7:41 PM PDT
Nautical Twilight 6:19 AM PDT 8:17 PM PDT
Astronomical Twilight 5:43 AM PDT 8:54 PM PDT
Moon 12:05 PM PDT (3/13) 3:29 AM PDT (3/13)
Length of Visible Light 12h 46m
Length of Day
11h 45m
First Quarter, 58% of the Moon is Illuminated
Mar 13
First Quarter
Mar 19
Full
Mar 26
Last Quarter
Apr 3
New
Apr 11
First Quarter

Hourly Weather History & Observations

Time (PDT) Temp. Windchill Dew Point Humidity Pressure Visibility Wind Dir Wind Speed Gust Speed Precip Events Conditions
12:53 AM 44.1 °F 42.5 °F 37.9 °F 79% 29.99 in 10.0 mi South 3.5 mph - N/A   Mostly Cloudy
1:53 AM 43.0 °F - 37.9 °F 82% 29.94 in 10.0 mi Calm Calm - N/A   Clear
3:53 AM 46.0 °F - 37.0 °F 71% 29.88 in 10.0 mi Calm Calm - N/A   Overcast
5:53 AM 46.0 °F 43.1 °F 39.9 °F 79% 29.84 in 10.0 mi Variable 5.8 mph - 0.03 in Rain Light Rain
6:53 AM 48.0 °F - 39.9 °F 74% 29.81 in 10.0 mi East 8.1 mph 17.3 mph 0.00 in   Overcast
7:53 AM 48.0 °F - 41.0 °F 77% 29.79 in 10.0 mi East 10.4 mph 17.3 mph 0.01 in Rain Light Rain
8:53 AM 48.9 °F - 39.9 °F 71% 29.78 in 10.0 mi East 13.8 mph 25.3 mph 0.00 in Rain Light Rain
9:53 AM 48.0 °F - 42.1 °F 80% 29.76 in 6.0 mi ESE 10.4 mph 18.4 mph 0.03 in Rain Light Rain
10:53 AM 48.9 °F - 42.1 °F 77% 29.74 in 4.0 mi ESE 11.5 mph 23.0 mph 0.05 in Rain Light Rain
11:53 AM 48.9 °F - 44.1 °F 83% 29.70 in 10.0 mi ESE 10.4 mph 21.9 mph 0.04 in Rain Light Rain
12:53 PM 48.9 °F - 44.1 °F 83% 29.67 in 10.0 mi East 12.7 mph 21.9 mph 0.02 in Rain Light Rain
1:53 PM 52.0 °F - 42.1 °F 69% 29.65 in 10.0 mi ESE 10.4 mph 19.6 mph 0.00 in   Overcast
2:53 PM 52.0 °F - 42.1 °F 69% 29.61 in 10.0 mi ESE 9.2 mph - 0.01 in   Overcast
3:53 PM 53.1 °F - 42.1 °F 66% 29.56 in 10.0 mi East 12.7 mph 23.0 mph N/A   Overcast
4:53 PM 51.1 °F - 44.1 °F 77% 29.62 in 4.0 mi SSE 13.8 mph - 0.03 in Rain Light Rain
5:07 PM 50.0 °F - 44.6 °F 82% 29.66 in 1.8 mi South 8.1 mph - 0.05 in Rain Rain
5:12 PM 50.0 °F - 46.4 °F 87% 29.65 in 1.2 mi South 12.7 mph 21.9 mph 0.09 in Rain Rain
5:18 PM 51.8 °F - 46.4 °F 82% 29.65 in 2.0 mi SSE 12.7 mph 21.9 mph 0.10 in Rain Light Rain
5:21 PM 51.8 °F - 44.6 °F 76% 29.65 in 3.0 mi SSE 11.5 mph 19.6 mph 0.10 in Rain Light Rain
5:53 PM 50.0 °F - 44.1 °F 80% 29.67 in 9.0 mi SE 15.0 mph 25.3 mph 0.12 in Rain Light Rain
6:53 PM 48.0 °F - 44.1 °F 86% 29.73 in 4.0 mi SSW 10.4 mph - 0.04 in Rain Light Rain
7:53 PM 46.0 °F 42.5 °F 43.0 °F 89% 29.77 in 10.0 mi SE 6.9 mph - 0.09 in   Overcast
8:53 PM 46.0 °F 41.9 °F 42.1 °F 86% 29.78 in 10.0 mi SSE 8.1 mph 16.1 mph 0.02 in   Mostly Cloudy
9:53 PM 45.0 °F - 43.0 °F 93% 29.84 in 10.0 mi Calm Calm - 0.00 in   Overcast
10:53 PM 46.0 °F 41.9 °F 41.0 °F 83% 29.83 in 10.0 mi SE 8.1 mph - 0.01 in   Overcast
11:53 PM 45.0 °F 42.6 °F 39.9 °F 82% 29.84 in 10.0 mi ESE 4.6 mph - N/A   Overcast
12:53 AM 46.0 °F 41.9 °F 39.0 °F 76% 29.83 in 10.0 mi ESE 8.1 mph - N/A   Overcast